Regional Weather Roundup
Issued by NWS Albany, NY

Home | Current Version | Previous Version | Graphics & Text | Print | Product List | Glossary Off
Versions: 1 2 3 4 5 6 7 8 9 10 11 12 13 14 15 16 17 18 19 20 21 22 23 24 25 26 27

000
ASUS41 KALY 271810
RWRALY

NEW YORK STATE HOURLY WEATHER ROUNDUP
NATIONAL WEATHER SERVICE ALBANY NY
100 PM EST MON FEB 27 2017

NOTE: "FAIR" INDICATES FEW OR NO CLOUDS BELOW 12,000 FEET WITH NO
SIGNIFICANT WEATHER AND/OR NO OBSTRUCTIONS TO VISIBILITY.

NYZ032-033-038>043-046>054-057>066-NYZ062>081-082-084-271900-
EAST


CITY           SKY/WX    TMP DP  RH WIND       PRES   REMARKS
ALBANY         PTSUNNY   53  20  27 SW16G26   30.27F
GLENS FALLS    SUNNY     50  23  34 SW16G24   30.22F
POUGHKEEPSIE   MOSUNNY   50  17  27 SW13G22   30.33F
NEWBURGH       SUNNY     50  21  32 W17G29    30.34F
MONTGOMERY     MOSUNNY   51  23  33 SW16      30.31F
WHITE PLAINS   MOSUNNY   50  19  29 SW10      30.35F
ISLIP          PTSUNNY   48  27  44 SW16      30.39F
NEW YORK CITY  CLOUDY    53  21  28 SW14      30.38F
CENTRAL PARK   MOSUNNY   51  21  30 SW9G17    30.40F
$$

NYZ005>009-017-018-044>046-055-056-271900-
CENTRAL


CITY           SKY/WX    TMP DP  RH WIND       PRES   REMARKS
FULTON         MOSUNNY   48  28  46 SW14G20   30.23F
SYRACUSE       MOSUNNY   50  23  34 SW16G24   30.23F
ROME           MOSUNNY   49  27  42 W15G21    30.24F
ELMIRA         MOSUNNY   51  18  27 SW13G22   30.26F
BINGHAMTON     SUNNY     45  18  34 SW16G23   30.25F
MONTICELLO     MOSUNNY  N/A N/A N/A W12G22    30.30F
$$

NYZ026>034-041>043-087-271900-
NORTH


CITY           SKY/WX    TMP DP  RH WIND       PRES   REMARKS
WATERTOWN      CLOUDY    43  30  60 SW14G24   30.23S
FORT DRUM      NOT AVBL
OGDENSBURG     FAIR      43  31  61 SW13G21   30.17S
MASSENA        CLOUDY    43  28  55 W12       30.17S
SARANAC LAKE   CLOUDY    38  25  59 W10G18    30.11F WCI  31
PLATTSBURGH    CLOUDY    46  21  37 SW12G25   30.15S
$$

NYZ001>004-010>016-019>021-085-271900-
WEST


CITY           SKY/WX    TMP DP  RH WIND       PRES   REMARKS
NIAGARA FALLS  SUNNY     48  30  49 SW16      30.22F
BUFFALO        MOSUNNY   45  23  42 W20G30    30.24S
DUNKIRK        SUNNY     45  22  40 SW17      30.26F
JAMESTOWN      PTSUNNY   43  21  42 W14G22    30.22F
WELLSVILLE     PTSUNNY   45  17  32 W14G24    30.23F
ROCHESTER      MOSUNNY   50  26  39 W20G28    30.23F
$$

             KEY
       WCI = WIND CHILL INDEX
       VSB = VISIBILITY
       HX  = HEAT INDEX
$$




USA.gov is the U.S. government's official web portal to all federal, state and local government web resources and services.